Location: Boitzum
(52.1496°N, 9.6943°E)
Time: 05:53:34
(UTC+00:00)

Cosmos 1709 Rocket - Pass Details

Date: 13 January 2026
Orbit: 948 x 1000 km, 82.9° (Epoch: 18 February)

Event Time Altitude Azimuth Distance (km) Brightness Sun altitude
Rises 05:17:45 0° 218° (SW) 3,610 6.7 -18.6°
Reaches altitude 10° 05:20:28 10° 227° (SW) 2,669 6.0 -18.2°
Maximum altitude 05:26:00 36° 292° (WNW) 1,479 4.4 -17.4°
Drops below altitude 10° 05:31:37 10° 358° (N) 2,697 6.2 -16.5°
Sets 05:34:22 0° 7° (N) 3,653 6.9 -16.1°
